www.pogodaiklimat.ru

Погода и климат >> Архив погоды >> Мексика >> Chetumal


ПОГОДА в Chetumal

  • Прогноз погоды в Chetumal
  • Монитор погоды в Chetumal
  • Климат города

АРХИВ ПОГОДЫ в Chetumal

Время (UTC), дата Ветер
(напр.,м/с)
 
Видим.   Явления Облачность Т
(С)
Тd
(С)
f
(%)
Тe
(С)
Тes
(С)
Комфортность P
(гПа)
Po
(гПа)
Тmin
(С)
Tmax
(С)
R
(мм)
R24
(мм)
S
(см)
12 18.06 В 3 10 км в посл. час дождь 8/8 600 м
[Sc diur, vesp]
+25.8 +24.1 90 +36 +36 очень
душно
1013.4 1012.4 4
15 18.06 В 6 10 км 10/10 600 м
[Sc diur, vesp]
+28.4 +25.6 85 +42 +42 опасность
перегрева
1015.2 1014.2
18 18.06 В 5 10 км 9/4 600 м
[Sc diur, vesp Ac trans Cs]
+31.9 +26.3 72 +48 +52 опасность
перегрева
1015.3 1014.3 +22.7 +31.9
21 18.06 В 5 10 км 9/6 600 м
[Sc diur, vesp Ac trans]
+30.5 +25.9 76 +45 +47 опасность
перегрева
1013.8 1012.8
00 19.06 В 4 10 км 8/5 600 м
[Sc diur, vesp Ac trans]
+28.8 +25.1 80 +42 +42 опасность
перегрева
1013.7 1012.7 +22.7 +31.6
03 19.06 В 4 8000 м 6/6 600 м
[Sc diur, vesp]
+27.7 +25.0 85 +40 +40 очень
душно
1014.9 1013.9
06 19.06 В 3 8000 м 10/10 600 м
[Frnb]
+27.6 +25.3 87 +40 +40 очень
душно
1015.2 1014.2 +23.5 +31.6
09 19.06 В 3 8000 м {морось} 8/6 600 м
[Sc diur, vesp Ac trans]
+27.4 +24.8 86 +39 +39 очень
душно
1014.0 1013.0 0.1
12 19.06 В 3 10 км 4/3 600 м
[Sc diur, vesp Ac trans]
+27.2 +24.6 86 +39 +39 очень
душно
1013.4 1012.4 0.1
15 19.06 В 4 10 км 4/4 600 м
[Sc diur, vesp]
+29.8 +25.3 77 +44 +49 опасность
перегрева
1014.2 1013.2
18 19.06 В 5 10 км 1/1 600 м
[Sc diur, vesp]
+32.1 +26.2 71 +48 +59 опасность
перегрева
1014.1 1013.1 +25.2 +32.1
21 19.06 В 5 10 км 1/1 600 м
[Sc diur, vesp]
+32.1 +25.2 67 +46 +52 опасность
перегрева
1013.2 1012.2
00 20.06 В 4 10 км 1/1 600 м
[Sc diur, vesp]
+29.4 +24.4 75 +42 +42 опасность
перегрева
1012.7 1011.6 +25.2 +32.4
03 20.06 В 3 8000 м 1/1 600 м
[Cu med, cong]
+27.3 +24.4 84 +38 +38 очень
душно
1013.5 1012.5
06 20.06 В 4 8000 м 3/3 600 м
[Sc diur, vesp]
+27.3 +24.3 84 +38 +38 очень
душно
1013.3 1012.3 +25.2 +32.4
15 20.06 В 3 10 км 10/9 600 м
[Sc diur, vesp Ac trans]
+29.9 +25.7 78 +44 +45 опасность
перегрева
1013.2 1012.2
18 20.06 В 4 10 км 9/9 600 м
[Sc diur, vesp]
+32.0 +25.5 69 +47 +48 опасность
перегрева
1012.7 1011.7 +25.0 +32.0
21 20.06 В 7 10 км 8/4 600 м
[Sc diur, vesp Ac trans]
+31.2 +25.6 72 +46 +47 опасность
перегрева
1012.0 1011.0
00 21.06 В 5 10 км 3/1 600 м
[Sc diur, vesp Ac trans]
+29.9 +25.3 76 +43 +44 опасность
перегрева
1012.0 1011.0 +25.0 +32.0
03 21.06 В 5 8000 м 8/8 600 м
[Sc diur, vesp]
+28.0 +24.9 83 +40 +40 очень
душно
1012.4 1011.4
06 21.06 В 4 8000 м 4/4 600 м
[Sc diur, vesp]
+27.8 +25.1 85 +40 +40 очень
душно
1012.4 1011.4 +25.0 +32.0
09 21.06 ЮВ 3 8000 м в посл. час морось 8/8 600 м
[Sc]
+27.5 +25.2 87 +40 +40 очень
душно
1011.4 1010.4 0.1
12 21.06 В 3 10 км 9/5 600 м
[Sc diur, vesp Ci fib]
+27.1 +25.3 90 +39 +40 очень
душно
1011.7 1010.7 0.1
15 21.06 В 4 10 км 10/10 600 м
[Sc diur, vesp]
+29.5 +25.7 80 +44 +44 опасность
перегрева
1013.2 1012.2
18 21.06 В 4 10 км 9/9 600 м
[Sc diur, vesp]
+31.4 +26.1 74 +47 +49 опасность
перегрева
1013.0 1012.0 +25.1 +31.6
21 21.06 В 6 10 км 1/1 600 м
[Sc diur, vesp]
+32.4 +26.0 69 +48 +52 опасность
перегрева
1011.4 1010.4
00 22.06 В 4 10 км 3/1 600 м
[Sc diur, vesp Cs]
+30.4 +25.9 77 +45 +46 опасность
перегрева
1011.2 1010.2 +25.1 +32.6
03 22.06 В 5 8000 м 9/8 600 м
[Sc diur, vesp Ci fib]
+28.4 +25.6 85 +42 +42 опасность
перегрева
1013.0 1012.0
06 22.06 В 5 8000 м 9/9 600 м
[Sc diur, vesp]
+28.2 +25.5 85 +41 +41 опасность
перегрева
1013.4 1012.4 +25.1 +32.6
09 22.06 В 2 8000 м 9/9 600 м
[Sc diur, vesp]
+27.5 +25.8 90 +41 +41 опасность
перегрева
1012.1 1011.1
12 22.06 В 3 10 км 10/8 600 м
[Sc diur, vesp Ci fib]
+27.6 +25.9 90 +41 +41 опасность
перегрева
1013.2 1012.2 +25.5 +32.6
15 22.06 В 4 10 км {морось} 8/3 600 м
[Sc diur, vesp Cs]
+30.5 +25.9 76 +45 +51 опасность
перегрева
1014.2 1013.2 0.0
18 22.06 В 5 10 км {морось} 4/1 600 м
[Sc diur, vesp Ac trans Ci]
+32.2 +26.4 72 +49 +58 опасность
перегрева
1013.8 1012.8 0.0
21 22.06 В 4 10 км 10/6 600 м
[Sc diur, vesp As op]
+30.6 +25.5 74 +45 +45 опасность
перегрева
1012.3 1011.3
00 23.06 В 5 10 км 10/8 600 м
[Sc diur, vesp Ac trans]
+29.4 +25.4 79 +43 +43 опасность
перегрева
1012.1 1011.1 +25.5 +33.0
03 23.06 В 3 8000 м 6/4 600 м
[Sc diur, vesp Ci fib]
+28.2 +25.5 85 +41 +41 опасность
перегрева
1013.8 1012.8
06 23.06 В 3 8000 м слабый дождь {морось} 9/9 600 м
[Sc]
+26.9 +26.1 95 +40 +40 очень
душно
1013.9 1012.9 2
15 23.06 В 4 10 км 10/3 600 м
[Sc diur, vesp Ac trans]
+29.9 +25.8 79 +45 +47 опасность
перегрева
1014.3 1013.3
18 23.06 В 4 10 км 9/1 600 м
[Sc diur, vesp Ac trans]
+32.2 +26.7 73 +50 +56 опасность
перегрева
1013.8 1012.8 +24.7 +32.2
21 23.06 В 5 10 км 5/1 600 м
[Sc diur, vesp Ac trans Ci fib]
+32.7 +26.3 69 +49 +53 опасность
перегрева
1011.7 1010.7
00 24.06 В 4 10 км 8/4 600 м
[Sc diur, vesp Ac trans Ci fib]
+29.5 +24.8 76 +42 +42 опасность
перегрева
1012.5 1011.5 +24.7 +32.9
03 24.06 В 3 8000 м 5/1 600 м
[Sc diur, vesp Ci fib]
+27.9 +24.1 80 +39 +39 очень
душно
1014.3 1013.3
06 24.06 В 3 8000 м 5/1 600 м
[Sc diur, vesp Ac trans Ci fib]
+27.4 +24.8 86 +39 +39 очень
душно
1014.1 1013.1 +24.7 +32.9
12 24.06 В 3 10 км 6/1 600 м
[Sc diur, vesp Cs]
+27.1 +25.0 88 +39 +39 очень
душно
1013.7 1012.7 +24.9 +32.9
15 24.06 В 4 10 км 6/4 600 м
[Sc diur, vesp Ci sp]
+30.0 +25.2 76 +44 +49 опасность
перегрева
1014.5 1013.5
18 24.06 В 4 10 км 3/1 600 м
[Sc diur, vesp Ci sp]
+32.0 +24.6 65 +45 +58 опасность
перегрева
1014.4 1013.4 +24.9 +32.3
21 24.06 ЮВ 5
{8}
10 км 1/1 600 м
[Cu hum]
+32.7 +25.2 65 +47 +52 опасность
перегрева
1012.5 1011.5
00 25.06 В 4 10 км 5/4 600 м
[Sc diur, vesp Ci fib]
+30.3 +24.6 72 +43 +43 опасность
перегрева
1012.6 1011.6 +24.9 +32.7
03 25.06 В 4 8000 м 8/8 600 м
[Sc diur, vesp]
+28.4 +25.1 82 +41 +41 опасность
перегрева
1014.5 1013.5
06 25.06 В 4 8000 м 6/6 600 м
[Sc diur, vesp]
+28.2 +25.7 86 +42 +42 опасность
перегрева
1014.7 1013.7 +24.9 +32.7

 

Местоположение метеостанции Chetumal (Мексика): широта 18.48 долгота -88.30 высота над уровнем моря 7 м.

В архиве по умолчанию представлена погода в Chetumal за последнюю неделю. Архивные данные за месяц целиком и за предыдущие месяцы, начиная с января 2011 года, Вы можете получить, выбрав интересующий диапазон дат из раскрывающегося списка и нажав кнопку "Ввод!".


*Определитесь, кто Вы:
робот инопланетянин человек

Внимание! Время в таблицах - всемирное. Для получения местного времени необходимо прибавить поправку, которая в Chetumal равна -6 ч.

Смотрите также архив погоды в соседних городах и на ближайших метеорологических станциях:

Погода в Belize (Белиз) (106 км)
Погода в Felipe Carrillo Puerto (Мексика) (142 км)
Погода в Flores (Гватемала) (241 км)
Погода в Valladolid (Мексика) (245 км)
Погода в Campeche (Мексика) (281 км)
Погода в Roatan (Гондурас) (306 км)
Погода в Puerto Barrios (Гватемала) (309 км)
Погода в Merida (Мексика) (312 км)
Погода в Merida 2 (Мексика) (316 км)
Погода в Tela (Гондурас) (319 км)

Пояснения к столбцам:

Ветер - указаны скорость ветра в м/с - средняя за 10 мин, порывы в срок и между сроками (в фигурных скобках) и направление, откуда дует ветер: С - северный, СВ - северо-восточный, В - восточный, ЮВ - юго-восточный, Ю - южный, ЮЗ - юго-западный, З - западный, СЗ - северо-западный.
Видимость - горизонтальная дальность видимости в метрах или километрах. При видимости от 1 до 10 км при отсутствии осадков обычно наблюдается дымка, при ухудшении видимости до 1 км и менее - туман. В сухую погоду видимость может ухудшаться дымом, пылью или мглою.
Явления - указаны атмосферные явления, наблюдавшиеся в срок или в последний час перед сроком; фигурными скобками обозначены явления, наблюдавшиеся между сроками (за 1-3 часа до срока); квадратными скобками обозначены град или гололедные отложения с указанием их диаметра в мм.
Облачность - указаны через наклонную черту общая и нижняя облачность в баллах и высота нижней границы облаков в метрах; квадратными скобками обозначены формы облаков: Ci - перистые, Cs - перисто-слоистые, Cc - перисто-кучевые, Ac - высококучевые, As - высокослоистые, Sc - слоисто-кучевые, Ns - слоисто-дождевые, Cu - кучевые, Cb - кучево-дождевые. Подробнее классификацию облаков см. в Атласе облаков (PDF).
T - Температура воздуха - температура, измеренная на высоте 2 м над землей.
Td - Температура точки росы - температура, при понижении до которой содержащийся в воздухе водяной пар достигнет насыщения.
f - Относительная влажность воздуха - влажноcть воздуха, измеренная на высоте 2 м над землей.
Te - Эффективная температура - температура, которую ощущает одетый по сезону человек в тени. Характеристика душности погоды. При расчете учитывается влияние влажности воздуха и скорости ветра на теплоощущения человека.
Tes - Эффективная температура на солнце - температура, которую ощущает человек, с поправкой на солнечный нагрев. Характеристика знойности погоды. Зависит от высоты солнца над горизонтом, облачности и скорости ветра. Ночью, в пасмурную погоду, а также при ветре 12 м/с и более поправка равна нулю.
P - Атмосферное давление - приведенное к уровню моря атмосферное давление.
Po - Атмосферное давление - измеренное на уровне метеостанции атмосферное давление.
Tmin - Минимальная температура - минимум температуры воздуха на высоте 2 м над землей.
Tmax - Максимальная температура - максимум температуры воздуха на высоте 2 м над землей.
R - Количество осадков - Количество выпавших осадков за период времени, мм. При наведении курсора мыши на число - период времени, за который выпало указанное количество осадков.
R24 - Количество осадков - Количество выпавших осадков за 24 часа, мм.
S - Снежный покров - Высота снежного покрова, см. При наведении курсора мыши на число - состояние снежного покрова и степень покрытия местности в баллах.